Regional Weather Roundup
Issued by NWS

Home | Current Version | Previous Version | Graphics & Text | Print | Product List | Glossary On
Versions: 1 2 3 4 5 6 7 8 9 10 11 12 13 14 15 16 17 18 19 20 21 22 23 24 25 26 27 28 29 30 31 32 33 34 35 36 37 38 39 40 41 42 43 44 45 46 47 48 49 50
000
ASUS43 KIND 271709
RWRIN

WEATHER ROUNDUP FOR INDIANA
NATIONAL WEATHER SERVICE INDIANAPOLIS IN
1200 PM EST SAT DEC 27 2014

NOTE: "FAIR" INDICATES FEW OR NO CLOUDS BELOW 12,000 FEET WITH NO
SIGNIFICANT WEATHER AND/OR OBSTRUCTIONS TO VISIBILITY.

* - STATION DOES NOT REPORT WEATHER SUCH AS PRECIPITATION OR FOG.

+ - STATION NOT QUALITY CONTROLLED BY THE NATIONAL WEATHER SERVICE.
    USE DATA WITH CAUTION...ESPECIALLY DEWPOINT AND RELATIVE
    HUMIDITY OBSERVATIONS.

INZ001>003-010>013-019-020-271800-
NORTHWEST INDIANA

CITY           SKY/WX    TMP DP  RH WIND       PRES   REMARKS
GARY /AIRPORT/ CLOUDY    50  45  81 S14G26    29.99F FOG
KNOX *+        CLOUDY    46  42  87 SW21G26   30.02R
LA PORTE +     CLOUDY    48  48 100 SW18      30.01F FOG
MICHIGAN CITY+ CLOUDY    46  45  93 SW15      29.99F FOG
MONTICELLO +   CLOUDY    46  45  97 SW14G22   30.07R
RENSSELAER +   CLOUDY    46  46 100 SW17G25   30.05F FOG
VALPARAISO     CLOUDY    46  45  96 SW14G22   30.01F FOG

$$

LMZ046-743>745-271800-
SOUTHERN LAKE MICHIGAN

STATION/POSITION TIME  TEMP WIND        PRES
                       AIR  DIR/SP/G
                 (UTC) (F)  (DEG/KT/KT) (MB)
MICHIGAN CITY    1700   47  180/ 18/ 22   N/A

$$

INZ004-005-014>016-021>024-271800-
NORTH CENTRAL INDIANA

CITY           SKY/WX    TMP DP  RH WIND       PRES   REMARKS
GOSHEN         CLOUDY    46  45  96 S20       30.01F FOG
LOGANSPORT +   CLOUDY    45  43  93 S14       30.07F
PERU/GRISSOM   CLOUDY    46  46 100 SW16G22   30.06F
ROCHESTER +    CLOUDY    46  46 100 S15       30.04F FOG
SOUTH BEND     CLOUDY    47  45  93 SW14G23   30.00F
WARSAW +       CLOUDY    45  45 100 SW10G16   30.04S FOG

$$

INZ006>009-017-018-025>027-271800-
NORTHEAST INDIANA

CITY           SKY/WX    TMP DP  RH WIND       PRES   REMARKS
ANGOLA *+      CLOUDY    45  45 100 SW14      30.01F
AUBURN +       CLOUDY    45  43  93 S12       30.05F FOG
FORT WAYNE     DRIZZLE   45  43  93 SW20G25   30.07F FOG
HUNTINGTON +   CLOUDY    44  43  97 S12G17    30.06F

$$

INZ028-029-035-036-043>045-051>053-271800-
WEST CENTRAL INDIANA

CITY           SKY/WX    TMP DP  RH WIND       PRES   REMARKS
GREENCASTLE +  CLOUDY    45  41  87 S8G20     30.13F
LAFAYETTE      CLOUDY    45  44  97 SW10      30.09R FOG
TERRE HAUTE    CLOUDY    47  45  93 SW10      30.12F

$$

INZ030>032-037>040-046>048-054>057-064-065-271800-
CENTRAL INDIANA

CITY           SKY/WX    TMP DP  RH WIND       PRES   REMARKS
ANDERSON       CLOUDY    45  45 100 S12G23    30.12F FOG
CP ATTERBURY + CLOUDY    45  43  93 MISG      30.15F FOG
FRANKFORT +    CLOUDY   N/A N/A N/A S16G22    30.10F
GREENWOOD *+   CLOUDY    46  45  93 SW14      30.14
INDIANAPOLIS   DRIZZLE   45  43  93 SW12      30.12F FOG
-EAGLE CREEK   CLOUDY    45  44  97 SW10      30.11F FOG
KOKOMO *+      CLOUDY    45  43  93 SW17      30.07F
MARION +       CLOUDY    43  42  97 SW16      30.09F FOG
MT COMFORT *+  CLOUDY    45 N/A N/A S12G21    30.13S
SHELBYVILLE    CLOUDY    46  43  89 S15       30.13F FOG
ZIONSVILLE +   LGT RAIN  45  42  89 S14       30.11F

$$

INZ033-034-041-042-049-050-058-059-271800-
EAST CENTRAL INDIANA

CITY           SKY/WX    TMP DP  RH WIND       PRES   REMARKS
MUNCIE         CLOUDY    46  43  89 SW15G23   30.09F

$$

INZ060-061-067>069-081>083-085>088-271800-
SOUTHWEST INDIANA

CITY           SKY/WX    TMP DP  RH WIND       PRES   REMARKS
EVANSVILLE     CLOUDY    49  46  90 S6        30.17F FOG
HUNTINGBURG *+ CLOUDY    46  43  87 S10       30.18F
WASHINGTON +   HVY RAIN  47  43  87 S9        30.15F

$$

INZ062-063-066-070>080-084-089>092-271800-
SOUTH CENTRAL AND SOUTHEAST INDIANA

CITY           SKY/WX    TMP DP  RH WIND       PRES   REMARKS
BLOOMINGTON    CLOUDY    46  45  96 SW9       30.14F FOG
NORTH VERNON + CLOUDY    46  46 100 S10       30.17  FOG

$$



USA.gov is the U.S. government's official web portal to all federal, state and local government web resources and services.